Location: *
(43.0409°S, 179.8306°W)
Time: 22:21:02
(UTC+00:00)

Daily predictions for brighter satellites

Satellite Brightness Start Highest point End
(mag) Time Altitude Azimuth Time Altitude Azimuth Time Altitude Azimuth
Cosmos 1980 Rocket 4.4 15:35:06 20° SE 15:35:06 20° SE 15:37:03 10° SE
H-2A R/B 4.3 16:04:01 10° NNE 16:05:11 17° NNE 16:05:11 17° NNE
SeaSat 1 4.1 16:09:26 10° ENE 16:13:35 28° SE 16:14:02 27° SE
Atlas Centaur 2 4.2 16:21:17 13° NNE 16:21:17 13° NNE 16:22:30 10° NE
SL-16 R/B 4.5 16:19:15 10° NNE 16:23:33 23° E 16:27:54 10° SE
USA 234 3.5 16:20:42 10° SE 16:26:21 55° S 16:26:21 55° S
Cosmos 2266 Rocket 4.3 16:29:08 10° N 16:35:09 64° E 16:41:11 10° SSE
Cosmos 1417 Rocket 4.4 16:41:05 43° S 16:43:27 88° W 16:49:51 10° N
Cosmos 2369 4.2 16:58:24 44° SSW 16:58:24 44° SSW 17:02:41 10° SSE
BREEZE-M DEB (TANK) 3.8 17:00:04 25° SE 17:00:04 25° SE 17:01:08 10° SE
FengYun 1-2 T 4.3 16:53:02 10° N 16:58:06 57° NW 16:58:06 57° NW
Gbstr 26 Del rocket 3.9 17:03:32 40° N 17:03:32 40° N 17:07:25 10° NNE
Cosmos 2263 Rocket 2.0 17:04:37 61° WSW 17:05:26 71° WNW 17:10:58 10° NNE
Cosmos 2278 3.6 17:01:06 11° NNW 17:06:41 88° ENE 17:12:28 10° SSE
ARGOS 3.0 17:04:23 10° N 17:09:51 80° WNW 17:13:08 25° SSW
Genesis I 3.2 17:11:30 74° E 17:11:30 74° E 17:15:07 10° NE
Cosmos 1862 4.3 17:13:28 35° N 17:13:28 35° N 17:15:49 10° N
Cosmos 883 Rocket 4.4 17:08:40 10° S 17:14:54 86° W 17:21:03 10° N
Cosmos 1980 Rocket 2.9 17:16:55 34° SSW 17:16:55 34° SSW 17:21:10 10° S
Cosmos 1110 Rocket 4.3 17:16:24 45° WNW 17:16:24 45° WNW 17:20:54 10° N
Cosmos 2082 4.2 17:23:04 36° WNW 17:23:04 36° WNW 17:27:55 10° N
AQUARIUS 4.4 17:22:28 10° NNE 17:26:57 72° ESE 17:31:31 10° S
USA 307 4.4 17:28:11 20° NNW 17:28:11 20° NNW 17:30:08 10° N
Lacrosse 4 Rocket 3.7 17:30:28 13° NNW 17:30:28 13° NNW 17:31:06 10° NNW
Cosmos 2315 Rocket 3.9 17:25:31 10° SSW 17:31:46 72° W 17:37:58 10° N
ATLAS CENTAUR R/B 3.7 17:34:03 13° NW 17:34:03 13° NW 17:34:57 10° NNW
CENTAUR R/B 4.4 17:24:24 10° N 17:32:09 40° ENE 17:38:50 10° SE
BREEZE-M DEB (TANK) 2.4 17:35:26 36° SSE 17:35:26 36° SSE 17:37:32 10° ESE
ISS -2.4 17:34:51 29° S 17:35:26 31° SSE 17:38:32 10° E
CZ-2D R/B 3.6 17:31:54 10° N 17:35:14 42° WNW 17:35:14 42° WNW
CZ-4B R/B 3.5 17:31:00 10° N 17:36:05 56° WNW 17:39:40 19° SSW
Radarsat 4.5 17:31:15 10° NNE 17:36:29 86° WNW 17:41:47 10° SSW
Cosmos 614 Rocket 4.4 17:32:39 10° N 17:37:43 62° ENE 17:42:49 10° SSE
Cosmos 2151 3.7 17:40:31 32° WNW 17:40:31 32° WNW 17:43:45 10° NNW
SL-08 RB Rocket 3.8 17:35:39 10° N 17:40:01 52° W 17:42:34 24° SSW
Timation 2 Rocket 3.9 17:35:22 16° SSW 17:40:21 86° WNW 17:46:38 10° NNE
BREEZE M DEB (TANK) 3.8 17:43:04 13° NNW 17:43:04 13° NNW 17:43:59 10° N
Cosmos 2237 4.2 17:37:45 10° NNW 17:43:28 87° ENE 17:49:17 10° SSE
Cosmos 1655 Rocket 4.2 17:37:44 10° NNW 17:43:43 47° WSW 17:49:48 10° S
Cosmos 1242 Rocket 2.2 17:43:59 27° SSW 17:45:42 75° W 17:49:04 10° N
H-2A R/B 4.1 17:45:39 10° NW 17:45:46 10° NW 17:45:46 10° NW
Cosmos 1602 4.0 17:45:53 10° S 17:49:40 66° E 17:53:24 10° NNE
Meteor 1-31 Rocket 3.5 17:46:23 10° NNW 17:49:43 30° W 17:49:43 30° W
SeaSat 1 2.8 17:46:06 10° N 17:50:50 46° WNW 17:53:47 22° SW
Cosmos 1818 4.2 17:49:19 26° W 17:51:26 35° SW 17:56:23 10° SSE
CORIOLIS 4.2 17:46:29 10° N 17:51:47 60° W 17:57:12 10° SSW
Meteor PRIRODA 3.9 17:48:36 10° NNE 17:52:12 66° ESE 17:55:50 10° S
Cosmos 1461 3.8 17:51:09 14° SSW 17:54:11 41° SE 17:57:59 10° ENE
NOAA 6 4.2 17:49:25 10° NNE 17:54:35 76° ESE 17:59:48 10° S
Cosmos 44 2.9 17:54:38 22° SW 17:57:23 71° WNW 18:01:38 10° NNE
Meteor 1-20 Rocket 4.4 17:57:29 10° S 18:03:13 81° E 18:08:59 10° NNE
Cosmos 1500 3.1 18:01:26 10° SSW 18:05:08 58° W 18:08:45 10° N
SL-16 R/B 2.3 18:01:38 10° NW 18:07:13 55° WSW 18:12:51 10° SSE
Atlas Centaur 2 3.9 18:04:43 10° NW 18:07:43 17° N 18:11:07 10° NE
Meteor 1-25 Rocket 4.4 18:03:34 10° S 18:09:17 78° E 18:14:53 10° NNE
USA 234 4.2 18:03:48 10° SE 18:09:23 30° SSW 18:13:41 15° WSW
Cosmos 2322 Rocket 2.1 18:04:57 10° NNW 18:10:34 74° WSW 18:16:16 10° SSE
CZ-4B R/B 3.2 18:06:34 10° NNE 18:10:47 77° ESE 18:15:13 10° S
Okean O Rocket 4.3 18:10:23 10° E 18:13:05 16° ESE 18:15:47 10° SSE
Cosmos 1844 3.9 18:08:58 10° SSW 18:14:51 78° ESE 18:20:38 10° NNE
Cosmos 2360 Rocket 2.2 18:12:02 10° NNW 18:17:43 89° ENE 18:23:28 10° SSE
SMAP 4.0 18:14:07 10° NNW 18:18:09 28° W 18:22:14 10° SW
DELTA 2 DEB (DPAF) 4.1 18:16:20 10° SSE 18:20:47 90° W 18:25:09 10° NNW
Cosmos 2221 2.9 18:17:15 10° N 18:21:35 69° E 18:25:58 10° SSE
Cosmos 1844 Rocket 2.7 18:21:41 10° SSW 18:27:19 74° WNW 18:32:52 10° NNE
Cosmos 2333 Rocket 2.4 18:24:03 10° NNW 18:29:41 79° ENE 18:35:26 10° SSE
Cosmos 1269 Rocket 4.4 18:27:09 10° NW 18:32:11 42° WSW 18:37:18 10° S
Cosmos-2242 4.1 18:29:18 10° NW 18:32:49 23° WSW 18:36:24 10° SSW
SL-4 R/B 2.2 18:28:38 10° WNW 18:33:06 83° SSW 18:37:49 10° ESE
COSMO-SKYMED 1 2.7 18:29:23 10° S 18:33:44 57° WSW 18:38:01 10° NNW
Cosmos 1933 3.3 18:30:01 10° NNW 18:34:05 77° W 18:38:14 10° S
Transit 2A Rocket 4.5 18:29:46 10° NNW 18:34:06 85° WSW 18:38:27 10° SSE
Cosmos 2333 4.3 18:32:44 10° NNW 18:38:21 85° ENE 18:44:06 10° SSE
Cosmos 2219 Rocket 2.7 18:36:16 10° NNW 18:41:48 66° ENE 18:47:25 10° SSE
ADEOS 4.1 18:37:50 10° NNW 18:42:45 41° W 18:47:46 10° SSW
Cosmos 1812 3.1 18:40:16 10° NNW 18:43:49 39° WSW 18:47:26 10° S
USA 81 4.1 18:39:52 10° S 18:45:13 73° W 18:50:29 10° N
Landsat 4 3.9 18:42:29 10° N 18:46:04 48° W 18:49:41 10° SSW
CZ-4B R/B 4.0 18:44:17 10° NNE 18:49:51 58° ESE 18:55:25 10° S
